Weather History for Punta Gorda, FL

Change the Weather History Date:

Tuesday, February 5, 2013

  Actual Average Record
Temperature  
Mean Temperature 62 °F -  
Max Temperature 78 °F 72 °F 84 °F (2008)
Min Temperature 45 °F 50 °F 30 °F (2009)
Degree Days  
Heating Degree Days 4    
Growing Degree Days 12 (Base 50)    
Moisture  
Dew Point 49 °F    
Average Humidity 66    
Maximum Humidity 87    
Minimum Humidity 37    
Precipitation  
Precipitation 0.00 in - - ()
Sea Level Pressure  
Sea Level Pressure 30.07 in    
Wind  
Wind Speed 3 mph (SSW)    
Max Wind Speed 10 mph    
Max Gust Speed -    
Visibility 10 miles    
Events      
Averages and records for this station are not official NWS values.
T = Trace of Precipitation, MM = Missing Value Source: NWS Daily Summary

Daily Weather History Graph

Daily Weather History Graph

Search for Another Location

Airport:

Trip Planner

Search our weather history database for the weather conditions in past years. The results will help you decide how hot, cold, wet, or windy it might be!

Date:

Astronomy

Feb. 05, 2013 Rise Set
Actual Time 7:11 AM EST 6:13 PM EST
Civil Twilight 6:46 AM EST 6:37 PM EST
Nautical Twilight 6:19 AM EST 7:05 PM EST
Astronomical Twilight 5:51 AM EST 7:32 PM EST
Moon 2:42 AM EST (2/5) 1:39 PM EST (2/5)
Length of Visible Light 11h 50m
Length of Day
11h 02m
Waning Crescent, 27% of the Moon is Illuminated
Feb 5
Waning Crescent
Feb 10
New
Feb 17
First Quarter
Feb 25
Full
Mar 4
Last Quarter

Hourly Weather History & Observations

Time (EST) Temp. Windchill Dew Point Humidity Pressure Visibility Wind Dir Wind Speed Gust Speed Precip Events Conditions
12:53 AM 48.9 °F - 45.0 °F 86% 30.11 in 10.0 mi Calm Calm - N/A   Clear
1:53 AM 48.0 °F - 44.1 °F 86% 30.09 in 10.0 mi NNE 4.6 mph - N/A   Clear
2:53 AM 48.0 °F - 43.0 °F 83% 30.08 in 10.0 mi ESE 4.6 mph - N/A   Clear
3:53 AM 45.0 °F - 41.0 °F 86% 30.07 in 10.0 mi Calm Calm - N/A   Clear
4:53 AM 46.0 °F 44.8 °F 41.0 °F 83% 30.06 in 10.0 mi SE 3.5 mph - N/A   Clear
5:53 AM 48.9 °F - 39.9 °F 71% 30.06 in 10.0 mi SE 4.6 mph - N/A   Clear
6:53 AM 46.0 °F - 39.9 °F 79% 30.07 in 10.0 mi Calm Calm - N/A   Clear
7:53 AM 48.9 °F - 44.1 °F 83% 30.08 in 10.0 mi Calm Calm - N/A   Clear
8:53 AM 60.1 °F - 45.0 °F 57% 30.10 in 10.0 mi Calm Calm - N/A   Clear
9:53 AM 70.0 °F - 48.9 °F 47% 30.12 in 10.0 mi Variable 4.6 mph - N/A   Clear
10:53 AM 75.0 °F - 48.9 °F 40% 30.11 in 10.0 mi South 8.1 mph - N/A   Clear
11:53 AM 75.9 °F - 48.9 °F 38% 30.10 in 10.0 mi WSW 10.4 mph - N/A   Clear
12:53 PM 77.0 °F - 50.0 °F 39% 30.08 in 10.0 mi Variable 5.8 mph - N/A   Clear
1:53 PM 78.1 °F - 50.0 °F 37% 30.06 in 10.0 mi WSW 8.1 mph - N/A   Clear
2:53 PM 77.0 °F - 51.1 °F 40% 30.04 in 10.0 mi SW 6.9 mph - N/A   Clear
3:53 PM 77.0 °F - 51.1 °F 40% 30.03 in 10.0 mi West 4.6 mph - N/A   Clear
4:53 PM 75.0 °F - 53.1 °F 46% 30.04 in 10.0 mi WSW 6.9 mph - N/A   Clear
5:53 PM 72.0 °F - 54.0 °F 53% 30.04 in 10.0 mi WSW 8.1 mph - N/A   Clear
6:53 PM 66.9 °F - 55.9 °F 68% 30.05 in 10.0 mi WSW 4.6 mph - N/A   Clear
7:53 PM 63.0 °F - 55.9 °F 78% 30.06 in 10.0 mi Calm Calm - N/A   Clear
8:53 PM 61.0 °F - 57.0 °F 87% 30.08 in 10.0 mi Calm Calm - N/A   Partly Cloudy
9:53 PM 59.0 °F - 55.0 °F 87% 30.08 in 10.0 mi Calm Calm - N/A   Scattered Clouds
10:53 PM 61.0 °F - 57.0 °F 87% 30.09 in 10.0 mi NE 5.8 mph - N/A   Overcast
11:53 PM 61.0 °F - 55.0 °F 81% 30.09 in 10.0 mi ESE 4.6 mph - N/A   Mostly Cloudy